Simultaneous Nadir Overpasses (SNOs) Predictions

Prediction of SNOs between GOES-16 and METOP-C Satellite Orbit:

Table of predicted SNOs for the next 14.0 days since TLE Epoch: 3/27/2022
Index Date Time (GOES-16) GOES-16 Lat,Lon METOP-C Lat,Lon Distance(km) Time Diff (sec)
1 03/27/2022 14:45:44 0.06, -75.23 0.71, -78.14 331.20 80
2 03/28/2022 14:22:24 0.05, -75.23 -0.40, -73.14 238.15 80
3 03/30/2022 02:44:04 -0.06, -75.22 -0.63, -77.73 286.79 80
4 03/31/2022 02:20:44 -0.06, -75.23 0.47, -72.74 283.22 80
5 04/01/2022 14:42:17 0.06, -75.27 0.52, -77.31 232.53 80
6 04/02/2022 14:18:58 0.06, -75.28 -0.59, -72.31 337.92 80
7 04/04/2022 02:40:37 -0.06, -75.28 -0.44, -76.91 185.72 80
8 04/05/2022 02:17:19 -0.05, -75.30 0.73, -71.92 384.90 80
9 04/06/2022 14:38:51 0.05, -75.34 0.31, -76.49 130.15 80
10 04/07/2022 14:15:32 0.05, -75.36 -0.80, -71.49 440.69 80
11 04/09/2022 02:37:11 -0.05, -75.37 -0.23, -76.08 82.36 80
12 04/10/2022 02:13:53 -0.04, -75.38 0.94, -71.10 488.75 80
